This is the latest recevied weather packets stored in our database for station/object KF0EZB. If no packets are shown the sender has not sent any weather packets the latest 10 day(s).
| Time | Temp. | Humidity | Pressure | Rain* | Wind** | Luminosity | Snow |
|---|---|---|---|---|---|---|---|
| 1777246513 | 15° C | 89% | 1003 hPa | 0 mm | - | 57 W/m² | - |
| 1777246211 | 15° C | 89% | 1003.1 hPa | 0 mm | - | 60 W/m² | - |
| 1777245909 | 15° C | 89% | 1003 hPa | 0 mm | - | 93 W/m² | - |
| 1777245607 | 15° C | 89% | 1002.9 hPa | 0 mm | - | 124 W/m² | - |
| 1777245303 | 15° C | 89% | 1002.8 hPa | 0 mm | - | 109 W/m² | - |
| 1777244998 | 15° C | 90% | 1002.8 hPa | 0 mm | - | 107 W/m² | - |
| 1777244694 | 15° C | 90% | 1002.9 hPa | 0 mm | - | 124 W/m² | - |
| 1777244390 | 15° C | 91% | 1003.5 hPa | 0 mm | - | 119 W/m² | - |
| 1777244087 | 14.44° C | 91% | 1003.1 hPa | 0 mm | - | 134 W/m² | - |
| 1777243785 | 14.44° C | 91% | 1003.1 hPa | 0 mm | - | 180 W/m² | - |
| 1777243482 | 14.44° C | 91% | 1003.4 hPa | 0 mm | - | 108 W/m² | - |
| 1777243178 | 13.89° C | 91% | 1003.3 hPa | 0 mm | - | 121 W/m² | - |
| 1777242873 | 13.89° C | 91% | 1003.4 hPa | 0 mm | - | 122 W/m² | - |
| 1777242572 | 13.89° C | 91% | 1003.4 hPa | 0 mm | - | 126 W/m² | - |
| 1777242267 | 13.89° C | 91% | 1003.5 hPa | 0 mm | - | 158 W/m² | - |
| 1777241965 | 13.89° C | 91% | 1003.6 hPa | 0 mm | - | 117 W/m² | - |
| 1777241662 | 13.89° C | 91% | 1003.8 hPa | 0 mm | - | 134 W/m² | - |
| 1777241359 | 13.89° C | 91% | 1003.8 hPa | 0 mm | - | 169 W/m² | - |
| 1777241056 | 13.89° C | 91% | 1003.8 hPa | 0 mm | - | 186 W/m² | - |
| 1777240754 | 13.89° C | 91% | 1004 hPa | 0 mm | - | 192 W/m² | - |
| 1777240452 | 13.89° C | 91% | 1003.9 hPa | 0 mm | - | 215 W/m² | - |
| 1777240149 | 13.89° C | 91% | 1003.9 hPa | 0 mm | - | 224 W/m² | - |
| 1777239847 | 13.89° C | 91% | 1004.1 hPa | 0 mm | - | 164 W/m² | - |
| 1777239543 | 13.89° C | 91% | 1004.2 hPa | 0 mm | - | 222 W/m² | - |
| 1777239239 | 13.33° C | 91% | 1004.2 hPa | 0 mm | - | 235 W/m² | - |
* Rain latest hour (hover to see other rain measurements)
** Current wind speed in m/s (hover to see current wind gust speed)